HAWK-B (43794 NORAD) Tracking and Keplerian Element Data

This shows tracking and keplerian element data for the satellite.

Feedback or suggestion? Click here.




ElementValue
Catalog43794
NameHAWK-B
Epoch Orbit643
Epoch Day15.90400848
Epoch Year2019
RAAN89.6687
Inclination97.7629
Eccentricity0.0013643
Argument of Perigee123.9346
Mean Anonmoly236.3174
Mean Motion14.95897149
Decay Rate-2.37E-06
L11 43794U 18099AN 19015.90400848 -.00000237 00000-0 -15962-4 0 9994
L22 43794 97.7629 89.6687 0013643 123.9346 236.3174 14.95897149 6434

Live tracking and technical data element details for HAWK-B (NORAD 43794). HAWK-B can be tracked NOW for your location showing map with azimuth and elevation plus other details from your city location.

Track the satellite on the map from your city or location and see movement details for azimuth, elevation, latitude, longitude, range, height, and movement on the map or in text.







IsCatalogInMostPopularTable: catalog: 43794, numindb: 17
Update: records affected: 1



GetName: 43794 HAWK-B

Hit Count: updated at: Thu, 17 Jan 2019 14:40:03 GMT